User: anonymous   Login
Location: Eastlake (historical)
(39.0077°N, 122.6678°W)
Time: 22:11:59
(UTC+00:00)
Language:

CZ-2C R/B - Orbit

View from above orbital plane
View from above orbital plane
View from above satellite
View from above satellite

Ground track
Ground track

The orbit data is extracted from the following two-line orbital elements,

1 31114U 07010B   21058.49946872 -.00000022  00000-0  83398-5 0  9994
2 31114  98.2377 259.9006 0058668 243.0585 116.4592 14.19347892719181
Epoch (UTC): 27 February 2021 11:59:14
Eccentricity: 0.0058668
inclination: 98.2377°
perigee height: 785 km
apogee height: 870 km
right ascension of ascending node: 259.9006°
argument of perigee: 243.0585°
revolutions per day: 14.19347892
mean anomaly at epoch: 116.4592°
orbit number at epoch: 71918

The dashed part of the orbit path shows where the satellite is in the earth's shadow,  

DLR